Weather History for Hinckley, MN

Change the Weather History Date:

Friday, December 14, 2012

  Actual Average (KJMR) Record (KJMR)
Temperature  
Mean Temperature 18 °F -  
Max Temperature 32 °F 25 °F 53 °F (1998)
Min Temperature 3 °F 4 °F -20 °F (2000)
Degree Days  
Heating Degree Days 48    
Moisture  
Dew Point 16 °F    
Average Humidity 88    
Maximum Humidity 100    
Minimum Humidity 80    
Precipitation  
Precipitation 0.00 in - - ()
Sea Level Pressure  
Sea Level Pressure 30.02 in    
Wind  
Wind Speed 2 mph (ENE)    
Max Wind Speed 9 mph    
Max Gust Speed -    
Visibility 8 miles    
Events Fog    
Averages and records for this station are not official NWS values.
T = Trace of Precipitation, MM = Missing Value Source: NWS Daily Summary

Daily Weather History Graph

Daily Weather History Graph

Search for Another Location

Airport:

Trip Planner

Search our weather history database for the weather conditions in past years. The results will help you decide how hot, cold, wet, or windy it might be!

Date:

Astronomy

Dec. 14, 2012 Rise Set
Actual Time 7:46 AM CST 4:26 PM CST
Civil Twilight 7:11 AM CST 5:01 PM CST
Nautical Twilight 6:33 AM CST 5:39 PM CST
Astronomical Twilight 5:57 AM CST 6:15 PM CST
Moon 8:48 AM CST (12/14) 6:23 PM CST (12/14)
Length of Visible Light 9h 49m
Length of Day
8h 40m
Waxing Crescent, 3% of the Moon is Illuminated
Dec 14
Waxing Crescent
Dec 19
First Quarter
Dec 28
Full
Jan 4
Last Quarter
Jan 11
New

Hourly Weather History & Observations

Time (CST) Temp. Windchill Dew Point Humidity Pressure Visibility Wind Dir Wind Speed Gust Speed Precip Events Conditions
12:15 AM 6.8 °F - 3.2 °F 85% 30.13 in 10.0 mi Calm Calm - N/A   Clear
12:35 AM 8.6 °F - 5.0 °F 85% 30.13 in 10.0 mi Calm Calm - N/A   Clear
12:55 AM 5.0 °F -2.1 °F 3.2 °F 92% 30.12 in 10.0 mi NNE 3.5 mph - N/A   Clear
1:15 AM 5.0 °F - 3.2 °F 92% 30.13 in 10.0 mi Calm Calm - N/A   Clear
1:35 AM 6.8 °F - 5.0 °F 92% 30.13 in 10.0 mi Calm Calm - N/A   Clear
1:55 AM 5.0 °F - 3.2 °F 92% 30.13 in 10.0 mi Calm Calm - N/A   Clear
2:15 AM 5.0 °F - 3.2 °F 92% 30.13 in 10.0 mi Calm Calm - N/A   Clear
2:35 AM 5.0 °F - 3.2 °F 92% 30.13 in 10.0 mi Calm Calm - N/A   Clear
2:55 AM 5.0 °F - 3.2 °F 92% 30.13 in 10.0 mi Calm Calm - N/A   Clear
3:15 AM 6.8 °F - 3.2 °F 85% 30.13 in 10.0 mi Calm Calm - N/A   Clear
3:35 AM 5.0 °F - 1.4 °F 85% 30.13 in 10.0 mi Calm Calm - N/A   Clear
3:55 AM 5.0 °F - 1.4 °F 85% 30.12 in 10.0 mi Calm Calm - N/A   Clear
4:15 AM 3.2 °F - -0.4 °F 85% 30.12 in 10.0 mi Calm Calm - N/A   Clear
4:35 AM 3.2 °F - 1.4 °F 92% 30.11 in 10.0 mi Calm Calm - N/A   Clear
5:15 AM 8.6 °F - 6.8 °F 92% 30.10 in 10.0 mi Calm Calm - N/A   Clear
5:35 AM 6.8 °F - 5.0 °F 92% 30.10 in 10.0 mi Calm Calm - N/A   Clear
5:55 AM 6.8 °F - 3.2 °F 85% 30.10 in 10.0 mi Calm Calm - N/A   Clear
6:15 AM 8.6 °F - 5.0 °F 85% 30.10 in 10.0 mi Calm Calm - N/A   Clear
6:35 AM 8.6 °F 2.0 °F 6.8 °F 92% 30.10 in 10.0 mi East 3.5 mph - N/A   Scattered Clouds
6:55 AM 10.4 °F - 8.6 °F 92% 30.11 in 10.0 mi Calm Calm - N/A   Mostly Cloudy
7:15 AM 10.4 °F 4.0 °F 8.6 °F 92% 30.09 in 10.0 mi East 3.5 mph - N/A   Overcast
7:35 AM 10.4 °F 2.2 °F 8.6 °F 92% 30.09 in 5.0 mi East 4.6 mph - N/A   Overcast
7:55 AM 10.4 °F - 8.6 °F 92% 30.10 in 7.0 mi Calm Calm - N/A   Overcast
8:15 AM 12.2 °F - 10.4 °F 92% 30.10 in 0.2 mi Calm Calm - N/A Fog Light Freezing Fog
8:35 AM 12.2 °F - 12.2 °F 100% 30.09 in 0.2 mi Calm Calm - N/A Fog Light Freezing Fog
8:55 AM 14.0 °F - 12.2 °F 93% 30.10 in 0.2 mi Calm Calm - N/A Fog Light Freezing Fog
9:15 AM 15.8 °F - 14.0 °F 93% 30.10 in 0.2 mi Calm Calm - N/A Fog Light Freezing Fog
9:35 AM 17.6 °F - 15.8 °F 93% 30.11 in 0.2 mi Calm Calm - N/A Fog Light Freezing Fog
9:55 AM 17.6 °F - 17.6 °F 100% 30.10 in 0.5 mi Calm Calm - N/A Fog Light Freezing Fog
10:15 AM 19.4 °F - 17.6 °F 93% 30.10 in 1.5 mi Calm Calm - N/A   Overcast
10:35 AM 21.2 °F - 19.4 °F 93% 30.10 in 2.5 mi Calm Calm - N/A   Overcast
10:55 AM 21.2 °F - 21.2 °F 100% 30.09 in 3.0 mi Calm Calm - N/A   Overcast
11:15 AM 23.0 °F - 21.2 °F 93% 30.08 in 4.0 mi Calm Calm - N/A   Overcast
11:35 AM 23.0 °F - 23.0 °F 100% 30.08 in 3.0 mi Calm Calm - N/A   Overcast
12:15 PM 26.6 °F 21.2 °F 24.8 °F 93% 30.03 in 5.0 mi ENE 4.6 mph - N/A   Mostly Cloudy
12:35 PM 26.6 °F 19.1 °F 26.6 °F 100% 30.04 in 5.0 mi ENE 6.9 mph - N/A   Mostly Cloudy
12:55 PM 26.6 °F 20.0 °F 26.6 °F 100% 30.04 in 5.0 mi ENE 5.8 mph - N/A   Mostly Cloudy
2:35 PM 32.0 °F 24.2 °F 26.6 °F 80% 29.98 in 10.0 mi East 9.2 mph - N/A   Clear
2:55 PM 32.0 °F 25.6 °F 26.6 °F 80% 29.98 in 10.0 mi East 6.9 mph - N/A   Clear
3:15 PM 32.0 °F 26.4 °F 26.6 °F 80% 29.98 in 10.0 mi ENE 5.8 mph - N/A   Clear
3:35 PM 32.0 °F 26.4 °F 26.6 °F 80% 29.97 in 10.0 mi ENE 5.8 mph - N/A   Clear
3:55 PM 32.0 °F 25.6 °F 26.6 °F 80% 29.96 in 10.0 mi ENE 6.9 mph - N/A   Clear
4:15 PM 30.2 °F 24.3 °F 26.6 °F 86% 29.96 in 10.0 mi ENE 5.8 mph - N/A   Clear
4:55 PM 28.4 °F 23.3 °F 24.8 °F 86% 29.95 in 10.0 mi ENE 4.6 mph - N/A   Clear
5:15 PM 28.4 °F 22.2 °F 26.6 °F 93% 29.94 in 10.0 mi ENE 5.8 mph - N/A   Clear
5:35 PM 28.4 °F 23.3 °F 24.8 °F 86% 29.94 in 10.0 mi NE 4.6 mph - N/A   Clear
6:15 PM 28.4 °F 22.2 °F 24.8 °F 86% 29.93 in 10.0 mi ENE 5.8 mph - N/A   Clear
6:35 PM 28.4 °F 21.2 °F 24.8 °F 86% 29.93 in 10.0 mi ENE 6.9 mph - N/A   Clear
6:55 PM 28.4 °F 21.2 °F 24.8 °F 86% 29.91 in 10.0 mi ENE 6.9 mph - N/A   Clear
7:15 PM 28.4 °F 21.2 °F 24.8 °F 86% 29.91 in 10.0 mi ENE 6.9 mph - N/A   Clear
7:55 PM 28.4 °F 21.2 °F 23.0 °F 80% 29.91 in 10.0 mi East 6.9 mph - N/A   Clear
8:15 PM 28.4 °F 21.2 °F 23.0 °F 80% 29.91 in 10.0 mi ENE 6.9 mph - N/A   Clear
8:35 PM 28.4 °F 21.2 °F 23.0 °F 80% 29.90 in 10.0 mi ENE 6.9 mph - N/A   Clear
8:55 PM 28.4 °F 21.2 °F 23.0 °F 80% 29.90 in 10.0 mi East 6.9 mph - N/A   Clear
9:15 PM 28.4 °F 21.2 °F 24.8 °F 86% 29.89 in 10.0 mi East 6.9 mph - N/A   Clear
9:35 PM 28.4 °F 19.7 °F 24.8 °F 86% 29.88 in 10.0 mi East 9.2 mph - N/A   Clear
9:55 PM 30.2 °F 23.4 °F 24.8 °F 80% 29.88 in 10.0 mi East 6.9 mph - N/A   Clear
10:15 PM 30.2 °F 24.3 °F 24.8 °F 80% 29.88 in 10.0 mi East 5.8 mph - N/A   Clear
10:35 PM 28.4 °F 21.2 °F 24.8 °F 86% 29.86 in 10.0 mi East 6.9 mph - N/A   Clear
10:55 PM 30.2 °F 22.6 °F 24.8 °F 80% 29.85 in 10.0 mi East 8.1 mph - N/A   Clear
11:15 PM 30.2 °F 22.6 °F 24.8 °F 80% 29.85 in 10.0 mi East 8.1 mph - N/A   Scattered Clouds
11:35 PM 30.2 °F 23.4 °F 26.6 °F 86% 29.84 in 10.0 mi East 6.9 mph - N/A   Mostly Cloudy
11:55 PM 30.2 °F 23.4 °F 26.6 °F 86% 29.84 in 10.0 mi East 6.9 mph - N/A   Overcast